Address 0x677f94a7f4677dcb6c005b35ef9cb45933744e1a 2

 
 
Txn Hash Method
Block
From
To
Value [Txn Fee]
0x3fa7d94e710599b8897ed7c38bbf25d0a959fc83c642d4ad38ea970285d35713Transfer252582212022-02-23 11:59:46220 days 8 hrs ago0x677f94a7f4677dcb6c005b35ef9cb45933744e1aOUT0x40aaad5197319d1f3043f22250fa78f3095e69130.09664453396091 MATIC0.000685713076 32.653003625
0xb216fe25679ba38a0b2957b9426a0485a1f18d7ea52e3671f0f30675c38e765cSet Approval For...252278482022-02-22 11:39:31221 days 9 hrs ago0x677f94a7f4677dcb6c005b35ef9cb45933744e1aOUT 0xeaecd0a4e68b4ce6d7285dfb144cdf9510f704470 MATIC0.00170204925836.484732555
0x009d5a691412f289fbb4c2a9bf6f4160a6e98e3c2da738d2fbd25829ec0c271eTransfer252278472022-02-22 11:39:29221 days 9 hrs ago0x677f94a7f4677dcb6c005b35ef9cb45933744e1aOUT Wrapped Ether0 MATIC0.00090395902230.061823177
0x721c532a015580ad39a2b02cf56cc8253b86de1da0fa74b034045ad2e6f07fa1Transfer252270522022-02-22 11:05:58221 days 9 hrs ago0xb220f003173e7c543c519be0c55332db8ee801ff IN 0x677f94a7f4677dcb6c005b35ef9cb45933744e1a0.1 MATIC0.00063129828630.061823185
0x9eccb187062b9d5eaae6742439014ff7a665e636abedb989ade955e924243832Transfer251087902022-02-19 8:41:18224 days 12 hrs ago0x677f94a7f4677dcb6c005b35ef9cb45933744e1aOUT0x40aaad5197319d1f3043f22250fa78f3095e69131.580997050088294 MATIC0.000624922854 29.758231179
0x8428658a43ac67e085d7b0b70eb19a7f9b463802205b5c1194190ba0bf537a98Transfer250874062022-02-18 16:58:15225 days 3 hrs ago0x677f94a7f4677dcb6c005b35ef9cb45933744e1aOUT Wrapped Ether0 MATIC0.001109425201 36.8947523
0x478384a7b4669f80bc8b495a3aa58dfcecc53a59960d826da5b8d0fcb871f6fcTransfer250569352022-02-17 18:21:22226 days 2 hrs ago0x677f94a7f4677dcb6c005b35ef9cb45933744e1aOUT Wrapped Ether0 MATIC0.00150702777450.097326454
0x49112b2bb9c34c1afe668b5dda60d11a16238d48ba7f959b2cbd92fa21223884Transfer250474542022-02-17 12:07:14226 days 8 hrs ago0x677f94a7f4677dcb6c005b35ef9cb45933744e1aOUT Wrapped Ether0 MATIC0.001831495484 35.233263139
0xf28eacfbb2a296d1b4ba93eb9fe21e93c2b387818ff740d1513560a5451c993cMint Batch250279522022-02-16 23:57:50226 days 20 hrs ago0x677f94a7f4677dcb6c005b35ef9cb45933744e1aOUT 0x1e023c813b2947dd77933fa839242739e322674a0 MATIC0.008920600611 32.199103435
0x45078b9c0cf558f82cdda9ecfbd4b0779143571dffa16203e3f6a9a08af97619Mint250278642022-02-16 23:54:50226 days 20 hrs ago0x677f94a7f4677dcb6c005b35ef9cb45933744e1aOUT 0x1e023c813b2947dd77933fa839242739e322674a0 MATIC0.00166571855 31.990599987
0x3b36e5aa85b0696bcf00a8817d96ed95cb2ade00f1a5debed232d70fdd3859e2Transfer*250277132022-02-16 23:49:40226 days 21 hrs ago0x677f94a7f4677dcb6c005b35ef9cb45933744e1aSELF0x677f94a7f4677dcb6c005b35ef9cb45933744e1a0 MATIC0.000688188706 30.359480599
0x63416406af8d4302125c614c20675f7b4ec87ba8ebb348e3045da4c00cc4f4fcTransfer*250276452022-02-16 23:47:16226 days 21 hrs ago0x677f94a7f4677dcb6c005b35ef9cb45933744e1aSELF0x677f94a7f4677dcb6c005b35ef9cb45933744e1a0 MATIC0.00070403147 31.8451
0x4f6a1e3e67ae5a58ef830b46e5d458f0e223d54d281b4b8d2db55a8ac88cb3a5Transfer*250275842022-02-16 23:45:14226 days 21 hrs ago0x677f94a7f4677dcb6c005b35ef9cb45933744e1aSELF0x677f94a7f4677dcb6c005b35ef9cb45933744e1a0 MATIC0.000664787559 30.069999999
0xb275f404c036a158a49c4b7623ac7ddee638cae9ba1585e8c70f93ce464c2fc7Transfer249844212022-02-15 21:12:25227 days 23 hrs ago0x677f94a7f4677dcb6c005b35ef9cb45933744e1aOUT Wrapped Ether0 MATIC0.001125262491 32.259116209
0x29c513480c021ee5cac3032d33ddd081bb634c1336e84c68017bb7c9e9d70480Mint Batch249820182022-02-15 19:40:42228 days 1 hr ago0x677f94a7f4677dcb6c005b35ef9cb45933744e1aOUT 0x1e023c813b2947dd77933fa839242739e322674a0 MATIC0.05394280198 32.605580004
0x4c256675c0c06c9810fddc2a38ca2ce36a7bc4841eb781b82c61211f5e21adf8Mint Batch249815882022-02-15 19:25:46228 days 1 hr ago0x677f94a7f4677dcb6c005b35ef9cb45933744e1aOUT 0x1e023c813b2947dd77933fa839242739e322674a0 MATIC0.002547480339 32.500004332
0xdcd23af2a68a4983230f0060f14c434e606b279a5dcf3b4c1989a8451daa4b92Mint Batch249813372022-02-15 19:17:08228 days 1 hr ago0x677f94a7f4677dcb6c005b35ef9cb45933744e1aOUT 0x1e023c813b2947dd77933fa839242739e322674a0 MATIC0.002547527517 32.50060621
0xbb1b9fe56fae13a1092481f33f83c5dd1a70a736ea20a383729a4eafb847e117Mint Batch249810152022-02-15 19:06:04228 days 1 hr ago0x677f94a7f4677dcb6c005b35ef9cb45933744e1aOUT 0x1e023c813b2947dd77933fa839242739e322674a0 MATIC0.001449908969 34.910646483
0x5b6a813469776d3c0460b2a60e38f1d3338f731f4c8381da0003c9d577c2552bMint Batch249808012022-02-15 18:58:38228 days 1 hr ago0x677f94a7f4677dcb6c005b35ef9cb45933744e1aOUT 0x1e023c813b2947dd77933fa839242739e322674a0 MATIC0.046127046035 36.585102521
0xab73c20b9d378c35329d2f32fa823bd6353b5adaa7320e790d31d9f51bce79ccMint Batch249805062022-02-15 18:46:20228 days 2 hrs ago0x677f94a7f4677dcb6c005b35ef9cb45933744e1aOUT 0x1e023c813b2947dd77933fa839242739e322674a0 MATIC0.006131970901 34.309338887
0xd6f89da706d2d67bc1d7a81f2b2b6df9d36f47dc806303eaffe7135b2a48fd7fTransfer246225472022-02-06 16:03:14237 days 4 hrs ago0x677f94a7f4677dcb6c005b35ef9cb45933744e1aOUT Wrapped Ether0 MATIC0.001093864926 31.3698
0x177c9642c1a74de6d6e49719fbd57d27cd971c9e35f9770267ac8f2563343d3fTransfer245403252022-02-04 12:28:35239 days 8 hrs ago0x677f94a7f4677dcb6c005b35ef9cb45933744e1aOUT Wrapped Ether0 MATIC0.000052323006 1.500000184
0xf2db562f2c912caf72e7fd42eb0325a5799bd53d847313e037a7252a31f6dabeTransfer245191612022-02-03 23:46:38239 days 21 hrs ago0x677f94a7f4677dcb6c005b35ef9cb45933744e1aOUT Wrapped Ether0 MATIC0.001092101266 31.308447509
0x14d255caf351afe95539f0a37a12081c32186dabca375087a2ed99edbea3ba7dTransfer244671942022-02-02 16:14:01241 days 4 hrs ago0x677f94a7f4677dcb6c005b35ef9cb45933744e1aOUT Wrapped Ether0 MATIC0.001143810692 32.802142017
0x7473e34152c08fb32dcfddfcc195d458afa469cde90a42f89618dc757823ae87Transfer244663812022-02-02 15:46:07241 days 5 hrs ago0x677f94a7f4677dcb6c005b35ef9cb45933744e1aOUT Wrapped Ether0 MATIC0.001073466175 30.784805716
[ Download CSV Export 
Parent Txn Hash Block From To Value
Loading

Contract Name:
0 MATIC

Compiler Version
0

Optimization Enabled:
0 MATIC

Other Settings:
-NA-
Block Transaction Gas Used Reward
Age Block Fee Address BC Fee Address Voting Power Jailed Incoming
Block Uncle Number Difficulty Gas Used Reward
Loading
Loading
Make sure to use the "Vote Down" button for any spammy posts, and the "Vote Up" for interesting conversations.